カタログに戻る

STARLINK-5719

運用中通信VLEO
NORAD 55609·PAYLOAD·🇺🇸 United States

打ち上げ Feb 12, 2023 から Cape Canaveral Space Force Station

Loading…

次のパス (今後24時間)

TLE

最新Source: CelesTrak SupGP

元期: Sep 15, 2026, 02:43 UTC

1 55609C 23020AS  26258.11368056 -.00011369  00000+0 -41186-3 0  2587
2 55609  43.0042   4.5356 0001747 264.8998 268.2536 15.27579132    13

AllMySatでSTARLINK-5719をリアルタイム追跡

Download on the App Store